User: anonymous   Login
Location: ActonStarParty
(42.4766°N, 71.4538°W)
Time: 06:37:43
(UTC-04:00)
Language:

Cosmos 1300 - Orbit

View from above orbital plane
View from above orbital plane
View from above satellite
View from above satellite

Ground track
Ground track

The orbit data is extracted from the following two-line orbital elements,

1 12785U 81082A   15087.81614644  .00006867  00000-0  37802-3 0  9997
2 12785 082.5068 154.0814 0002784 135.4738 359.3405 15.13883426828940
Epoch (UTC): 28 March 2015 19:35:15
Eccentricity: 0.0002784
inclination: 82.5068°
perigee height: 522 km
apogee height: 526 km
right ascension of ascending node: 154.0814°
argument of perigee: 135.4738°
revolutions per day: 15.13883426
mean anomaly at epoch: 359.3405°
orbit number at epoch: 82894

The dashed part of the orbit path shows where the satellite is in the earth's shadow,  

DLR